Location: Lucerne Valley
(34.4439°N, 116.9669°E)
Time: 23:13:16
(UTC-07:00)

OTV 5 (USA 277) - Pass Details

Date: 16 October 2017
Orbit: 404 x 417 km, 43.0° (Epoch: 07 September)

Event Time Altitude Azimuth Distance (km) Brightness Sun altitude
Rises 04:08:08 0° 298° (WNW) 2,352 ? -19.6°
Reaches altitude 10° 04:10:40 10° 317° (NW) 1,489 ? -20.1°
Enters shadow 04:13:00 19° 1° (N) 1,065 ? -20.6°
